Location: ??????????
(54.4061°N, 22.6114°E)
Time: 18:03:53
(UTC+00:00)

Cosmos 1844 Rocket - Pass Details

Date: 23 October 2019
Orbit: 826 x 843 km, 71.0° (Epoch: 19 November)

Event Time Altitude Azimuth Distance (km) Brightness Sun altitude
Rises 15:50:54 0° 218° (SW) 3,387 6.7 -6.0°
Reaches altitude 10° 15:53:21 10° 221° (SW) 2,454 6.0 -6.3°
Maximum altitude 15:58:59 72° 306° (NW) 883 3.0 -7.1°
Drops below altitude 10° 16:04:37 10° 31° (NNE) 2,457 4.8 -8.0°
Sets 16:07:05 0° 33° (NNE) 3,392 5.4 -8.3°
